This is the latest recevied weather packets stored in our database for station/object AB4CZ-1. If no packets are shown the sender has not sent any weather packets the latest 1 day(s).
| Time | Temp. | Humidity | Pressure | Rain* | Wind** | Luminosity | Snow |
|---|---|---|---|---|---|---|---|
| 1778103696 | 27.22° C | 68% | 1012.9 hPa | 0 mm | - | - | - |
| 1778103393 | 27.22° C | 68% | 1012.8 hPa | 0 mm | - | - | - |
| 1778101593 | 26.67° C | 67% | 1013 hPa | 0 mm | - | - | - |
| 1778100993 | 26.67° C | 67% | 1013.1 hPa | 0 mm | - | - | - |
| 1778100705 | 26.67° C | 67% | 1013 hPa | 0 mm | - | - | - |
| 1778100394 | 26.67° C | 66% | 1013.2 hPa | 0 mm | - | - | - |
| 1778097393 | 28.33° C | 64% | 1013.7 hPa | 0 mm | - | - | - |
| 1778097093 | 27.78° C | 63% | 1014 hPa | 0 mm | - | - | - |
| 1778096794 | 28.33° C | 62% | 1014.1 hPa | 0 mm | - | - | - |
| 1778096493 | 28.33° C | 63% | 1014.2 hPa | 0 mm | - | - | - |
| 1778096194 | 27.78° C | 63% | 1014.2 hPa | 0 mm | - | - | - |
| 1778095593 | 28.33° C | 61% | 1014.3 hPa | 0 mm | - | - | - |
| 1778095202 | 28.33° C | 61% | 1014.5 hPa | 0 mm | - | - | - |
| 1778094093 | 27.78° C | 64% | 1014.8 hPa | 0 mm | - | - | - |
| 1778093793 | 27.78° C | 64% | 1014.8 hPa | 0 mm | - | - | - |
| 1778092893 | 27.22° C | 63% | 1015.2 hPa | 0 mm | - | - | - |
| 1778092593 | 27.22° C | 62% | 1015.4 hPa | 0 mm | - | - | - |
| 1778092293 | 27.78° C | 63% | 1015.2 hPa | 0 mm | - | - | - |
| 1778091993 | 27.22° C | 64% | 1015.3 hPa | 0 mm | - | - | - |
| 1778090793 | 27.22° C | 63% | 1015.4 hPa | 0 mm | - | - | - |
| 1778089593 | 27.22° C | 63% | 1015.2 hPa | 0 mm | - | - | - |
| 1778088404 | 27.22° C | 65% | 1015.1 hPa | 0 mm | - | - | - |
| 1778087494 | 27.22° C | 65% | 1015.2 hPa | 0 mm | - | - | - |
| 1778084793 | 26.11° C | 67% | 1015.6 hPa | 0 mm | - | - | - |
| 1778084493 | 26.11° C | 68% | 1015.8 hPa | 0 mm | - | - | - |
* Rain latest hour (hover to see other rain measurements)
** Current wind speed in m/s (hover to see current wind gust speed)